973  
ASUS44 KOHX 310810  
RWROHX  
MIDDLE TENNESSEE HOURLY WEATHER ROUNDUP  
NATIONAL WEATHER SERVICE NASHVILLE TN  
300 AM CDT SUN MAY 31 2020  
 
NOTE: "FAIR" INDICATES FEW OR NO CLOUDS BELOW 12,000 FEET WITH  
NO SIGNIFICANT WEATHER AND/OR S TO VISIBILITY
.  
 
* THESE REPORTS ARE NOT UNDER NWS QUALITY CONTROL AND MAY NOT  
REPORT WEATHER SUCH AS PRECIPITATION AND FOG.
 
 
 
TNZ005>011-023>034-057-059-062>066-078-080-310900   
..NORTHERN MIDDLE TENNESSEE
 
 
 
CITY SKY/WX TMP DP RH WIND PRES REMARKS
 
CLARKSVILLE CLEAR 59 53 80 NW3 30.16R  
CROSSVILLE CLEAR 58 49 72 N7 30.15S  
DICKSON PTCLDY 59 59 100 CALM 30.15R  
GALLATIN PTCLDY 61 54 77 N5 30.17R  
LEBANON PTCLDY 59 55 88 N3 30.12S  
LIVINGSTON CLEAR 59 52 77 NE8 30.13F  
NASHVILLE CLEAR 61 52 72 CALM 30.15R  
PORTLAND CLEAR 57 55 94 CALM 30.15R  
ROCKWOOD CLEAR 59 54 82 N5 30.12S  
SMYRNA CLEAR 60 55 83 N6 30.15S  
SPARTA N/A 57 54 88 CALM 30.13R  
SPRINGFIELD PTCLDY 59 54 82 CALM 30.14R  
WEST NASHVILLE PTCLDY 61 54 77 CALM 30.13R  

 
TNZ056-058-060-061-075>077-079-093>097-310900   
..SOUTHERN MIDDLE TENNESSEE
 
 
 
CITY SKY/WX TMP DP RH WIND PRES REMARKS
 
COLUMBIA CLEAR 57 57 100 CALM 30.12S  
FAYETTEVILLE CLEAR 61 55 82 N7 30.11S  
LAWRENCEBURG MOCLDY 59 54 82 N5 30.13S  
LEWISBURG CLEAR 55 54 94 CALM 30.13S  
MCMINNVILLE CLEAR 59 54 82 CALM 30.12S  
MURFREESBORO CLOUDY 61 55 82 CALM 30.12S  
PULASKI N/A 57 55 94 CALM 30.12S  
SHELBYVILLE CLEAR 59 55 88 N6 30.13R  
TULLAHOMA CLEAR 59 54 82 N3 30.11S  
WINCHESTER CLEAR 57 55 94 CALM 30.11S  

 
 
   
..KEY TO REMARKS
 
 
VSB - VISIBILITY IN MILES  
WCI - WIND CHILL INDEX  
HX - HEAT INDEX  
 
 
 
CLICK HERE TO GO TO PREVIOUS BULLETINS.

The Nexlab TN Page Main Text Page